User: anonymous   Login
Location: Unspecified
(0.0000°N, 0.0000°E)
Time: 10:33:49
(UTC+00:00)
Language:

Cosmos 1354 - Orbit

View from above orbital plane
View from above orbital plane
View from above satellite
View from above satellite

Ground track
Ground track

The orbit data is extracted from the following two-line orbital elements,

1 13148U 82037A   18021.24977451 +.00000029 +00000-0 +20694-4 0  9994
2 13148 074.0396 303.6359 0008668 143.7037 010.7113 14.31862034865701
Epoch (UTC): 21 January 2018 05:59:40
Eccentricity: 0.0008668
inclination: 74.0396°
perigee height: 779 km
apogee height: 792 km
right ascension of ascending node: 303.6359°
argument of perigee: 143.7037°
revolutions per day: 14.31862034
mean anomaly at epoch: 10.7113°
orbit number at epoch: 86570

The dashed part of the orbit path shows where the satellite is in the earth's shadow,  

DLR